Temp
5 6 6 6 6 6 7 8 8 9 10 9 9 9 9 9 10 11 12 8 10 11 12 13 13 13 14 14 14 14 10 12 14 14 14 15 14 15 15 15 15 16 16 16 16
5 6 6 6 6 6 7 8 8 9 9 9 9 9 10 10 11 11 8 10 10 11 12 12 13 13 13 13 14 13 10 13 14 13 12 13 13 13 14 14 14 15 16 15 15
5 5 6 6 7 7 6 8 8 9 9 9 9 9 9 10 12 7 8 10 11 11 12 13 13 13 13 13 13 13 12 13 12 12 12 11 12 12 12 11 14 14 14 14 15
6 6 5 6 6 6 6 7 7 8 9 9 9 9 10 10 7 7 8 10 11 11 12 12 13 13 12 12 13 12 13 13 12 11 11 10 11 11 11 13 13 14 13 13 13
5 6 5 5 6 6 6 6 7 8 9 8 9 9 10 9 6 7 8 9 10 11 11 12 12 13 12 11 12 11 11 12 12 12 11 11 10 10 11 13 13 13 13 13 13
5 5 5 5 6 7 6 7 7 8 8 9 9 9 10 5 6 7 8 9 10 11 11 12 11 11 12 11 10 10 10 10 11 11 11 10 9 9 13 13 13 13 13 13 13
6 5 5 5 5 6 7 7 7 8 8 8 9 10 9 6 7 7 7 9 9 10 11 10 11 12 11 10 10 10 9 9 10 11 10 10 10 8 12 13 12 13 13 13 13
6 5 6 6 6 7 7 8 8 8 9 9 9 10 6 6 7 7 7 8 9 10 10 10 11 11 10 10 10 10 10 8 11 10 9 10 7 10 13 12 12 12 13 13 11
6 6 6 6 7 7 7 8 9 9 9 9 9 10 6 7 7 7 8 8 8 9 10 10 10 10 10 8 6 7 8 10 9 11 10 9 7 9 12 12 11 12 12 10 11
6 6 6 6 6 7 7 8 8 9 9 9 9 9 7 7 7 8 8 9 9 9 9 10 10 5 4 3 5 7 6 7 8 10 9 7 7 9 10 11 11 9 8 10 9
6 6 6 6 7 8 9 9 9 8 8 7 7 7 7 7 7 8 9 9 9 9 7 9 3 3 6 7 8 7 7 6 7 9 7 8 8 9 10 10 8 7 8 9 9
7 7 7 7 7 9 10 9 7 7 7 8 7 7 7 7 8 8 9 9 9 6 9 5 5 7 8 8 8 8 7 6 8 8 8 7 7 9 10 7 7 7 7 6 5
6 7 8 8 9 9 9 8 8 8 8 8 8 8 8 8 7 8 8 8 8 7 7 5 7 8 8 8 8 9 7 7 5 7 7 7 7 10 11 8 7 6 6 6 4
7 8 8 9 9 9 9 9 9 9 2 7 8 8 8 8 7 8 8 8 9 7 7 8 8 8 8 8 9 8 9 8 7 7 3 6 5 7 10 9 8 7 7 5 4
8 8 9 10 9 9 8 9 9 9 3 8 9 9 9 8 8 9 8 8 7 8 7 8 7 7 8 9 9 8 8 7 7 5 6 6 3 6 7 8 7 6 6 5 5
7 8 9 10 9 9 9 9 9 3 3 5 9 9 9 9 9 9 8 8 8 8 8 8 9 8 8 9 9 9 7 7 7 6 4 6 5 5 6 6 6 5 6 5 6
9 9 8 8 9 9 9 8 3 2 7 8 8 10 9 10 10 10 9 8 7 4 3 7 8 8 8 8 8 6 2 3 4 3 5 6 4 6 7 6 5 6 7 6 6
9 9 9 9 9 9 9 4 3 8 8 9 9 9 10 10 10 11 10 8 9 8 3 4 6 8 8 8 7 7 5 5 4 5 5 7 5 7 8 8 8 7 6 6 7
10 9 9 9 9 9 9 3 4 7 9 9 10 9 9 10 10 10 11 9 9 9 7 6 7 9 8 10 9 9 6 8 4 6 7 4 7 9 8 6 6 6 6 7 7
10 10 9 10 10 10 4 5 6 9 9 9 10 10 10 11 10 10 11 11 9 10 9 8 5 9 9 9 9 8 8 6 5 6 6 5 6 7 6 7 7 6 7 8 8
10 10 10 10 10 10 3 6 8 9 9 9 10 10 11 10 11 10 11 10 10 9 9 9 7 7 9 7 7 7 7 7 7 7 6 5 5 6 7 8 8 7 9 9 8
10 6 10 10 9 7 5 9 10 9 9 9 9 10 10 10 10 10 11 11 11 10 9 8 6 3 7 10 9 8 8 7 4 7 6 5 6 10 9 8 9 9 10 10 9
9 9 10 10 4 4 8 8 9 9 9 9 9 10 9 9 9 9 11 10 10 9 9 8 5 3 6 7 8 9 8 8 6 4 4 5 6 10 8 8 10 10 10 10 9
9 3 9 10 9 8 9 9 9 9 9 10 9 10 9 9 8 9 10 9 10 9 9 9 5 5 4 8 7 7 9 8 6 3 4 5 7 11 9 8 9 10 11 11 10
8 6 7 4 7 8 9 9 9 8 8 9 8 8 8 8 9 8 9 10 8 8 8 6 4 4 5 6 6 7 7 7 6 7 6 8 7 9 8 8 10 11 12 11 10
8 7 7 7 8 8 7 9 9 9 8 8 7 9 7 7 9 9 9 9 8 6 6 6 4 5 4 6 6 5 6 7 7 8 7 8 8 10 11 10 10 12 12 11 11
6 6 6 7 7 6 5 8 9 10 10 10 8 8 7 7 8 8 8 9 9 6 5 6 4 4 4 4 5 5 6 7 7 6 8 7 9 10 9 9 11 12 12 12 11
Height
1449 1451 1459 1465 1467 1470 1475 1482 1490 1494 1498 1502 1506 1507 1510 1512 1513 1515 1517 1523 1523 1523 1524 1524 1526 1528 1529 1530 1531 1533 1542 1545 1540 1538 1541 1539 1539 1539 1540 1539 1538 1538 1538 1539 1538
1452 1453 1461 1467 1469 1472 1479 1480 1489 1495 1501 1503 1507 1509 1512 1514 1516 1515 1524 1524 1524 1524 1525 1526 1527 1529 1530 1533 1534 1535 1544 1541 1539 1540 1542 1541 1541 1541 1541 1539 1535 1536 1536 1536 1535
1457 1457 1459 1457 1465 1477 1474 1475 1488 1498 1502 1505 1510 1512 1514 1515 1516 1526 1526 1527 1526 1527 1526 1527 1528 1529 1532 1534 1536 1537 1542 1539 1541 1541 1541 1541 1541 1542 1541 1538 1534 1535 1534 1533 1531
1466 1466 1466 1470 1473 1480 1478 1480 1490 1499 1504 1509 1513 1515 1514 1516 1531 1531 1530 1527 1528 1528 1528 1529 1529 1531 1534 1537 1537 1540 1538 1538 1540 1540 1541 1542 1542 1540 1540 1531 1532 1532 1532 1531 1530
1475 1474 1473 1477 1478 1483 1484 1488 1494 1501 1507 1513 1516 1517 1516 1520 1532 1532 1531 1529 1528 1528 1528 1529 1530 1532 1534 1536 1538 1539 1539 1538 1539 1539 1540 1541 1540 1540 1532 1529 1529 1529 1528 1527 1526
1477 1476 1477 1478 1481 1486 1492 1494 1501 1506 1512 1516 1517 1518 1518 1523 1534 1534 1532 1531 1530 1530 1530 1530 1532 1533 1535 1537 1539 1539 1539 1538 1537 1537 1538 1538 1536 1537 1527 1526 1526 1526 1525 1524 1522
1480 1481 1482 1483 1483 1489 1498 1503 1507 1512 1516 1518 1520 1521 1519 1532 1535 1535 1534 1533 1532 1531 1531 1532 1533 1534 1536 1538 1540 1539 1539 1536 1536 1538 1537 1537 1533 1531 1525 1524 1525 1524 1522 1520 1519
1483 1484 1483 1485 1490 1495 1504 1507 1513 1516 1520 1521 1522 1522 1529 1536 1536 1536 1534 1534 1533 1533 1533 1534 1535 1535 1537 1539 1540 1540 1539 1544 1537 1537 1537 1537 1537 1523 1523 1523 1522 1521 1519 1517 1516
1493 1490 1491 1494 1499 1504 1509 1512 1518 1522 1523 1524 1524 1524 1536 1538 1537 1536 1535 1534 1535 1535 1535 1535 1536 1538 1539 1542 1548 1545 1549 1542 1541 1535 1536 1536 1533 1521 1521 1520 1518 1516 1516 1514 1510
1499 1496 1497 1501 1508 1515 1517 1519 1524 1524 1525 1525 1527 1530 1539 1541 1539 1538 1537 1536 1536 1536 1536 1537 1538 1543 1547 1552 1565 1556 1558 1551 1546 1538 1536 1536 1530 1517 1515 1516 1515 1515 1513 1510 1508
1504 1506 1508 1511 1514 1514 1515 1519 1524 1529 1529 1534 1537 1537 1541 1542 1540 1539 1538 1537 1537 1538 1541 1541 1552 1562 1553 1550 1550 1552 1553 1553 1543 1538 1537 1532 1526 1515 1510 1512 1512 1510 1508 1507 1505
1513 1514 1515 1519 1519 1519 1519 1521 1525 1534 1537 1538 1540 1541 1542 1541 1541 1539 1539 1539 1540 1545 1542 1549 1557 1551 1550 1549 1549 1550 1551 1551 1540 1537 1538 1530 1520 1512 1507 1508 1508 1507 1506 1505 1503
1522 1523 1524 1523 1522 1525 1527 1529 1532 1533 1537 1545 1546 1545 1545 1545 1545 1543 1543 1543 1544 1546 1547 1552 1551 1550 1549 1548 1548 1546 1549 1550 1553 1541 1534 1530 1522 1509 1506 1507 1506 1506 1505 1502 1501
1530 1530 1530 1530 1533 1533 1534 1534 1535 1536 1549 1553 1549 1550 1548 1546 1548 1546 1545 1546 1545 1548 1548 1550 1550 1550 1549 1549 1546 1549 1545 1545 1546 1544 1559 1537 1544 1517 1507 1505 1504 1502 1500 1499 1498
1536 1536 1535 1535 1536 1536 1537 1535 1536 1538 1579 1556 1552 1551 1549 1550 1550 1548 1546 1546 1549 1549 1552 1552 1550 1551 1550 1547 1546 1547 1544 1545 1545 1549 1545 1538 1557 1518 1510 1506 1501 1499 1498 1496 1494
1539 1539 1539 1539 1538 1537 1535 1535 1538 1555 1584 1561 1553 1550 1550 1548 1548 1547 1547 1547 1548 1549 1549 1549 1548 1548 1548 1547 1545 1542 1543 1542 1543 1546 1560 1538 1545 1523 1513 1502 1500 1497 1496 1494 1492
1541 1541 1541 1541 1541 1539 1538 1538 1553 1572 1559 1557 1554 1550 1549 1547 1547 1546 1547 1549 1552 1563 1565 1551 1547 1546 1546 1545 1544 1547 1558 1570 1563 1567 1551 1533 1546 1513 1497 1495 1496 1493 1492 1492 1489
1544 1544 1543 1541 1540 1538 1536 1540 1565 1554 1555 1551 1550 1548 1548 1547 1546 1545 1546 1552 1549 1550 1563 1565 1559 1545 1544 1545 1549 1547 1554 1562 1576 1564 1552 1530 1537 1505 1490 1490 1491 1491 1490 1489 1487
1543 1543 1542 1540 1538 1536 1535 1552 1556 1550 1548 1549 1548 1549 1550 1548 1548 1546 1545 1549 1547 1548 1558 1559 1550 1540 1541 1540 1544 1544 1553 1545 1560 1549 1541 1542 1513 1493 1491 1489 1490 1488 1488 1486 1485
1542 1541 1541 1538 1537 1537 1538 1551 1550 1546 1547 1548 1549 1547 1549 1546 1548 1546 1544 1544 1547 1547 1548 1551 1560 1541 1540 1542 1542 1544 1545 1555 1556 1559 1554 1539 1524 1511 1498 1488 1485 1485 1484 1484 1483
1543 1542 1542 1540 1539 1538 1553 1553 1549 1550 1550 1551 1548 1547 1546 1547 1546 1546 1543 1544 1544 1547 1547 1548 1554 1550 1541 1543 1543 1547 1548 1546 1547 1548 1557 1552 1526 1491 1489 1483 1481 1481 1481 1480 1479
1543 1544 1543 1541 1541 1542 1548 1546 1547 1549 1550 1551 1551 1550 1549 1548 1548 1545 1544 1542 1544 1546 1548 1547 1552 1561 1542 1532 1531 1534 1537 1541 1560 1546 1548 1551 1524 1480 1480 1479 1478 1477 1476 1475 1475
1543 1544 1544 1543 1551 1550 1548 1549 1549 1550 1550 1551 1551 1549 1548 1549 1552 1547 1543 1544 1544 1545 1547 1547 1553 1566 1544 1539 1533 1533 1532 1532 1540 1547 1550 1554 1514 1479 1480 1480 1477 1476 1475 1473 1472
1544 1546 1544 1544 1545 1547 1547 1547 1548 1548 1548 1548 1547 1547 1548 1548 1547 1548 1545 1544 1542 1543 1544 1545 1550 1549 1555 1533 1534 1534 1528 1529 1535 1554 1542 1523 1499 1478 1480 1480 1477 1473 1470 1469 1469
1546 1548 1548 1550 1547 1547 1547 1547 1548 1549 1548 1547 1547 1546 1547 1547 1545 1546 1542 1542 1542 1542 1543 1545 1550 1545 1538 1530 1529 1525 1523 1524 1528 1522 1527 1495 1499 1475 1480 1477 1472 1468 1463 1462 1464
1547 1547 1548 1547 1546 1547 1546 1545 1545 1544 1547 1548 1549 1544 1546 1547 1543 1543 1541 1542 1541 1543 1544 1544 1546 1540 1535 1521 1523 1518 1509 1508 1508 1505 1502 1494 1487 1471 1468 1469 1466 1463 1460 1459 1459
1549 1549 1548 1547 1547 1548 1547 1542 1541 1542 1541 1540 1541 1544 1544 1542 1540 1539 1538 1537 1536 1538 1541 1542 1545 1547 1538 1525 1520 1509 1488 1489 1492 1488 1484 1493 1461 1462 1461 1461 1460 1458 1457 1455 1454
Wind_Speed
9 20 22 19 15 11 17 30 23 21 22 31 35 30 23 18 16 12 14 9 11 13 15 14 14 11 7 5 4 3 4 1 3 4 3 2 4 3 3 7 10 6 9 10 15
19 22 18 16 15 11 7 27 29 23 33 36 31 28 24 20 14 21 13 9 10 11 11 9 11 8 5 3 3 4 3 1 1 3 3 4 7 9 5 13 19 18 12 11 11
23 19 17 16 11 22 4 24 33 32 37 33 31 25 15 8 13 17 13 6 6 7 11 11 10 7 4 3 2 2 2 1 6 6 6 5 8 10 8 7 15 16 16 19 22
23 18 18 17 20 15 18 40 38 39 36 33 20 11 10 9 5 11 10 9 8 10 12 11 8 3 5 3 2 2 2 2 1 5 4 4 11 9 11 22 12 20 22 21 22
21 18 16 19 18 16 22 29 33 38 34 25 16 10 10 19 11 6 7 8 8 7 10 8 7 3 4 6 1 2 4 2 2 4 4 5 10 7 25 26 20 15 15 14 16
19 16 18 24 21 21 24 26 27 31 28 17 14 12 14 17 13 12 10 6 7 7 8 8 6 6 6 4 3 3 7 9 5 3 3 2 8 4 14 13 11 12 9 13 17
14 15 18 22 25 27 21 30 29 27 20 15 15 16 27 15 11 10 12 11 8 9 10 10 7 4 4 3 2 3 5 5 4 1 2 6 6 6 11 8 7 9 13 22 23
13 15 16 23 30 34 29 15 24 25 18 15 10 6 12 14 8 5 5 9 12 9 9 9 8 9 4 1 1 2 2 4 2 2 1 5 7 12 12 15 25 24 24 23 12
21 19 20 26 33 29 28 29 25 17 16 11 13 10 6 7 9 11 10 9 9 13 12 9 7 6 4 3 4 6 2 3 5 4 0 2 7 15 21 25 27 24 19 5 9
28 29 37 36 37 35 35 30 21 12 11 10 8 8 7 5 9 12 10 13 10 8 7 8 6 4 5 6 2 2 4 5 5 4 2 7 16 18 21 19 21 4 8 11 16
30 36 38 37 34 35 28 19 11 15 31 17 12 19 10 9 13 10 10 9 7 6 4 7 8 3 2 3 2 3 1 5 6 1 7 6 14 20 27 13 7 8 11 16 22
31 28 32 28 20 16 13 12 15 13 14 20 18 16 11 7 3 11 8 6 8 4 2 6 3 1 0 1 1 3 3 5 6 7 9 9 17 16 7 7 6 7 13 20 21
26 27 25 16 14 13 23 23 16 7 7 8 11 9 6 8 6 10 6 5 5 5 5 5 3 3 2 3 3 2 1 2 5 7 4 9 6 2 2 9 3 8 13 19 13
20 22 16 20 20 17 13 9 5 2 5 9 6 7 7 2 3 9 5 3 3 2 3 3 2 1 3 2 3 3 1 2 6 8 3 4 4 5 2 6 2 11 18 14 14
19 17 13 13 8 10 5 1 1 2 5 6 5 3 5 2 0 6 8 5 3 2 3 3 2 2 3 1 2 5 4 3 2 1 4 3 3 7 2 7 8 10 12 9 11
11 14 12 11 11 11 7 1 2 6 1 5 3 4 2 2 0 2 3 4 2 2 1 3 2 2 2 3 3 5 4 3 1 1 2 5 4 6 4 6 4 5 9 9 12
4 10 5 6 8 10 5 1 5 6 4 1 1 2 3 2 1 2 2 2 2 4 5 4 3 3 3 2 3 7 6 3 4 2 4 3 2 9 8 7 6 10 13 11 14
2 5 5 11 13 10 5 4 8 2 2 2 3 4 1 2 2 2 1 1 1 2 1 2 6 5 4 4 3 2 4 3 3 2 5 2 5 6 4 6 10 12 14 14 16
4 6 7 10 9 6 2 6 7 5 3 3 1 1 2 2 2 1 2 3 2 2 2 3 4 2 4 3 4 2 0 2 1 3 3 4 7 6 3 7 10 15 14 17 16
3 6 8 9 7 7 5 3 2 1 1 2 2 1 2 1 1 2 3 2 4 2 3 2 4 4 2 1 5 3 1 2 2 2 5 6 6 5 5 9 5 9 15 16 16
2 2 6 5 6 5 3 1 2 1 2 3 3 1 2 1 1 2 2 2 2 3 1 1 3 6 3 5 7 2 2 3 2 3 3 4 7 6 6 7 8 8 13 14 15
2 2 6 5 3 3 2 2 3 3 2 1 1 2 2 3 2 2 1 1 7 5 2 4 3 4 9 3 5 5 6 5 4 3 1 3 7 5 7 7 11 15 14 13 13
2 2 5 7 2 2 1 2 1 4 3 2 2 2 3 2 2 2 1 4 6 3 1 1 2 4 7 4 4 2 4 4 4 2 6 3 7 2 2 6 14 17 17 14 15
2 3 2 3 3 3 1 2 2 2 2 2 1 2 2 2 4 3 2 3 8 8 5 2 3 7 6 4 2 4 5 5 6 4 4 12 13 19 10 6 11 19 24 23 18
4 1 1 2 3 2 0 1 2 2 3 3 3 5 5 3 2 5 4 2 4 6 5 4 5 4 8 14 13 17 18 14 15 13 10 4 10 18 9 13 26 28 25 20 22
2 2 2 3 3 1 1 3 5 3 6 4 4 0 5 5 5 4 1 3 6 4 5 3 4 4 7 12 9 15 16 17 19 21 22 24 28 26 34 26 21 16 11 15 22
4 2 2 2 1 2 3 3 1 2 5 6 9 2 5 7 10 12 11 11 10 7 6 5 3 4 6 7 12 9 8 13 7 6 21 16 24 11 11 12 16 18 18 19 20
Wind_Direction
133 151 146 161 139 160 214 162 163 158 138 126 120 117 118 129 123 110 82 49 88 97 96 95 104 102 72 88 90 42 63 325 354 38 172 66 54 57 331 301 288 268 294 299 306
105 101 110 124 167 177 146 142 155 146 130 128 128 127 115 103 102 84 50 99 107 117 109 107 113 104 77 71 42 59 95 69 68 42 47 6 15 342 330 305 286 290 275 294 299
91 87 85 82 110 151 221 161 152 138 138 134 127 119 107 96 79 28 48 64 103 131 124 129 134 107 82 111 47 38 133 60 44 70 23 351 333 335 354 275 267 274 300 298 292
83 77 83 101 120 140 82 125 137 143 139 132 118 109 127 122 78 15 43 68 92 106 121 116 109 99 125 111 75 85 98 93 59 37 23 335 312 323 279 255 265 284 291 293 292
86 76 85 113 133 138 88 127 135 142 137 130 113 103 122 83 50 29 79 85 111 132 129 125 105 59 102 116 122 17 358 354 307 309 311 281 270 269 275 283 289 290 298 284 294
69 75 95 110 131 132 73 120 128 133 132 121 118 113 106 81 61 42 44 85 88 110 125 134 104 59 81 72 79 325 307 288 281 177 292 292 280 317 286 322 283 297 303 307 304
64 86 110 125 127 134 118 100 117 123 124 122 107 106 89 84 69 42 29 51 62 72 95 105 112 121 82 102 4 289 321 327 6 26 230 326 302 202 8 343 317 309 305 308 306
68 87 106 120 124 126 123 101 111 110 99 89 82 100 77 81 73 86 77 46 52 61 80 89 96 89 67 58 287 340 47 28 291 162 205 53 271 273 302 319 315 303 296 303 325
82 96 117 122 125 116 115 104 109 92 87 78 65 72 76 67 57 49 51 56 56 65 66 73 79 66 37 52 21 5 327 345 327 249 273 189 269 262 296 293 292 297 304 5 326
93 88 111 113 105 104 102 100 88 85 89 69 63 68 58 53 48 37 60 65 55 40 44 45 55 65 23 43 180 322 348 332 283 322 282 271 268 281 293 289 285 21 14 347 332
103 95 103 112 112 110 106 101 89 51 58 75 79 88 96 69 45 50 58 55 40 44 63 31 63 87 63 61 126 134 265 283 268 46 358 279 283 287 290 286 127 39 360 336 323
107 107 108 104 95 93 82 87 95 119 68 55 63 71 59 32 22 42 61 62 52 55 47 32 81 108 345 246 266 245 272 292 298 358 334 293 291 288 291 126 109 31 349 336 326
118 114 108 69 85 97 106 102 108 97 81 52 38 46 33 42 44 16 39 53 57 43 32 123 169 163 273 311 283 315 203 334 252 305 282 342 300 217 217 137 101 12 339 336 337
107 124 109 104 92 91 82 87 97 86 79 337 2 16 5 26 23 19 44 62 54 75 19 89 182 287 315 282 25 298 175 287 310 337 295 74 294 294 252 254 288 332 335 338 333
119 128 109 93 79 66 36 281 204 186 60 298 330 333 3 62 325 16 33 59 83 36 83 260 173 252 277 28 27 243 349 297 278 352 327 321 62 272 318 269 273 305 321 311 309
115 124 111 82 50 28 12 145 150 44 268 325 285 294 242 219 257 6 40 44 55 336 258 240 157 165 243 273 224 270 344 354 107 53 328 238 135 279 214 213 280 269 311 298 308
136 151 134 21 357 359 353 199 45 87 248 292 252 297 326 33 187 221 162 9 85 48 356 329 223 186 202 7 334 30 40 355 360 354 231 205 47 250 251 230 223 269 291 287 311
186 206 285 320 327 328 320 63 74 236 196 208 227 294 93 21 253 279 315 108 329 84 82 92 326 190 174 166 188 256 133 136 223 307 283 212 238 254 237 240 246 260 276 288 308
292 294 310 332 335 331 292 52 177 199 194 191 164 266 238 240 207 297 160 142 129 73 122 8 287 97 190 149 137 196 343 212 120 255 290 253 284 299 295 268 246 258 268 281 300
327 336 1 358 3 359 62 113 147 78 89 75 187 235 58 271 167 2 184 210 154 138 107 296 315 252 149 158 259 182 265 37 4 7 303 289 283 241 284 279 248 250 259 275 286
25 37 3 356 339 20 95 84 90 83 6 357 358 309 270 233 216 259 227 197 132 170 145 273 121 295 105 197 181 130 274 230 182 164 198 304 272 221 223 239 261 252 265 272 266
54 42 357 4 29 59 91 126 119 161 216 303 330 316 324 357 319 292 280 81 152 144 226 215 173 258 228 269 155 167 192 165 127 283 269 169 271 256 223 230 238 258 257 262 251
46 29 6 1 76 24 320 52 42 156 210 217 250 210 21 345 347 258 19 147 151 128 291 95 279 328 346 355 353 183 222 193 122 92 212 174 261 271 251 252 245 253 267 251 244
23 30 42 50 90 126 139 192 193 217 269 210 239 100 25 273 207 262 324 182 193 182 164 107 240 200 209 214 93 238 208 200 176 170 208 230 277 267 301 281 284 284 272 254 247
29 34 34 305 345 46 80 214 185 247 242 233 289 215 178 238 277 212 228 218 205 196 161 150 246 233 257 266 267 264 255 235 222 222 211 221 238 267 271 290 295 299 303 258 238
56 58 341 294 292 320 216 220 204 210 158 245 221 290 231 228 217 237 70 200 232 203 171 198 272 312 279 262 263 266 255 243 238 237 241 254 272 272 275 276 284 282 308 254 240
27 21 328 264 270 96 233 234 160 125 230 212 202 217 278 264 280 279 265 245 230 164 205 179 199 360 270 320 314 291 233 213 203 222 220 229 241 257 272 269 272 288 285 271 257